Location: Krasnoyarskiy Pitomnik
(51.1333°N, 71.6167°E)
Time: 15:33:06
(UTC+00:00)

Cosmos 1825 Rocket - Pass Details

Date: 22 October 2021
Orbit: 603 x 631 km, 82.5° (Epoch: 26 November)

Event Time Altitude Azimuth Distance (km) Brightness Sun altitude
Rises 14:18:47 0° 351° (N) 2,882 7.2 -21.4°
Reaches altitude 10° 14:21:02 10° 354° (N) 1,969 6.3 -21.7°
Enters shadow 14:25:00 62° 47° (NE) 685 3.5 -22.3°
